Regional Weather Roundup
Issued by NWS

Home | Current Version | Previous Version | Text Only | Print | Product List | Glossary Off
Versions: 1 2 3 4 5 6 7 8 9 10 11 12 13 14 15 16 17 18 19 20 21 22 23 24 25 26 27 28 29 30 31 32 33 34 35 36 37 38 39 40 41 42 43 44 45 46 47 48 49 50

146
ASUS43 KDTX 080110
RWRMI
MICHIGAN HOURLY REGIONAL WEATHER ROUNDUP
NATIONAL WEATHER SERVICE DETROIT/PONTIAC MI
800 PM EST WED DEC 07 2016

NOTE: "FAIR" INDICATES FEW OR NO CLOUDS BELOW 12,000 FEET WITH NO
SIGNIFICANT WEATHER AND/OR OBSTRUCTION TO VISIBILITY.

MIZ047>049-052>055-059>063-066>070-074>076-081>083-080200-
SOUTHEAST LOWER MICHIGAN

CITY           SKY/WX    TMP DP  RH WIND       PRES   REMARKS
ADRIAN         PTCLDY    30  24  78 W9        30.06S WCI  22
ALMA           CLOUDY    33  23  66 SW13G28   29.98R WCI  24
ANN ARBOR      CLEAR     30  22  72 SW9       30.03F WCI  22
BAD AXE        MOCLDY    32  24  72 SW13G21   29.95R WCI  22
CARO           PTCLDY    32  24  72 SW13G24   29.96S WCI  22
DETROIT CITY   PTCLDY    32  24  72 SW14      30.03S WCI  22
DETROIT        MOCLDY    31  24  75 W10       30.05S WCI  22
FLINT          CLOUDY    32  23  69 SW16      30.00R WCI  21
GROSSE ILE     PTCLDY    32  25  74 W10       30.04S WCI  24
HILLSDALE      CLOUDY    28  23  80 W13G20    30.03S WCI  18
HOWELL         CLOUDY    32  22  66 W13G22    30.01S WCI  22

CITY           SKY/WX    TMP DP  RH WIND       PRES   REMARKS
JACKSON        CLOUDY    30  21  69 W13       30.03F WCI  20
LAMBERTVILLE   PTCLDY    33  25  75 W9        30.06F WCI  25
LANSING        CLOUDY    32  22  66 SW14      30.01F WCI  22
LAPEER         NOT AVBL
MASON          CLOUDY    31  24  73 SW10      30.02S WCI  23
MONROE         CLEAR     32  27  81 W9        30.04F WCI  24
MT. CLEMENS    PTCLDY    33  24  72 SW13      29.99S WCI  23
PONTIAC        CLOUDY    32  23  69 SW8       29.99R WCI  25
PORT HOPE        N/A     32  24  72 SW8       29.92R WCI  25
PORT HURON     CLOUDY    32  25  74 SW7       30.00R WCI  26
TRI CITIES     MOCLDY    33  24  69 SW16G24   29.96S WCI  23
MIDLAND        CLOUDY    32  21  63 SW8G21    29.95S WCI  25
TROY           PTCLDY    33  22  64 SW8G20    30.03S WCI  26
SAGINAW HB     MOCLDY    32  25  74 SW14      29.96S WCI  22
$$
MIZ043>046-050>051-056>058-064>065-071>073-077>080-080200-
SOUTHWEST LOWER MICHIGAN

CITY           SKY/WX    TMP DP  RH WIND       PRES   REMARKS
BATTLE CREEK   MOCLDY    30  22  72 SW15      30.04S WCI  19
BENTON HARBOR  CLOUDY    31  21  66 W21G26    30.09R WCI  18
BIG RAPIDS     CLOUDY    31  20  65 W17G26    29.95R WCI  19
COLDWATER      PTCLDY    28  21  75 W15       30.06S WCI  17
FREMONT        CLOUDY    30  19  64 W10       29.99R WCI  21
HOLLAND        CLOUDY    32  23  69 W17G31    30.04R WCI  21
GRAND RAPIDS   CLOUDY    32  23  69 W18       30.02R WCI  20
IONIA          CLOUDY    32  25  74 SW14G24   29.99R WCI  22
KALAMAZOO      CLOUDY    30  21  69 SW16G25   30.06R WCI  19
LUDINGTON      CLOUDY    27  20  75 W10G20    29.99S WCI  18
MARSHALL       CLOUDY    30  22  71 SW15      30.04S WCI  19
MOUNT PLEASANT CLOUDY    32  22  67 W13G23    29.95S WCI  22
MUSKEGON       CLOUDY    31  22  69 W16G25    30.03R WCI  20
SOUTH HAVEN    CLOUDY    31  23  73 W16G22    30.06S WCI  20
$$
MIZ016>042-080200-
NORTHERN LOWER MICHIGAN

CITY           SKY/WX    TMP DP  RH WIND       PRES   REMARKS
ALPENA         CLOUDY    30  16  56 SW16G29   29.86S WCI  19
BEAVER ISLAND  CLOUDY    29  20  69 W23G32    29.83R WCI  15
BELLAIRE       CLOUDY    30  20  67 SW12G23   29.88S WCI  21
CADILLAC       CLOUDY    26  18  72 W13G23    29.90S WCI  15
CHARLEVOIX     CLOUDY    31  20  63 SW24G30   29.87S WCI  17
FRANKFORT      CLOUDY    29  21  71 W17G24    29.93S WCI  17
GAYLORD        CLOUDY    27  18  69 SW16G26   29.83R WCI  15
GRAYLING       CLOUDY    28  20  73 SW10G21   29.87S WCI  18
HARBOR SPRINGS CLOUDY    31  21  65 W17G25    29.83R WCI  20
HOUGHTON LAKE  CLOUDY    28  19  69 W15G26    29.90R WCI  16
MANISTEE       FLURRIES  27  19  72 W18G24    29.96S WCI  14
OSCODA         CLOUDY    32  19  58 MISG      29.89S
PELLSTON       LGT SNOW  29  19  66 W16G22    29.82S WCI  17
ROGERS CITY    CLOUDY    30  20  65 SW16G24   29.84R WCI  19
TRAVERSE CITY  FLURRIES  30  19  63 SW12      29.90S WCI  20
$$
MIZ007>008-015-080200-
EASTERN UPPER MICHIGAN

CITY           SKY/WX    TMP DP  RH WIND       PRES   REMARKS
MACKINAC ISLAN FLURRIES  28  21  75 W17G24    29.80R WCI  15
NEWBERRY       CLOUDY    23  14  67 W10G17    29.79S WCI  13
MUNISING         N/A     24  12  60 W10G22    29.82R WCI  14
$$
MIZ004>006-011>014-085-080200-
CENTRAL UPPER MICHIGAN

CITY           SKY/WX    TMP DP  RH WIND       PRES   REMARKS
MANISTIQUE     CLOUDY    24  13  62 W9G16     29.84R WCI  15
SAWYER-GWINN   CLOUDY    19  12  73 W12G26      N/A  WCI   7
$$
MIZ001>003-009>011-084-080200-
WESTERN UPPER MICHIGAN

CITY           SKY/WX    TMP DP  RH WIND       PRES   REMARKS
$$

ABBREVIATIONS USED IN REMARKS
   TC - TEMPERATURE IN CELSIUS
  WCI - WIND CHILL INDEX
   HX - HEAT INDEX
  VSB - VISIBILITY





USA.gov is the U.S. government's official web portal to all federal, state and local government web resources and services.